Wind_Speed
41 42 42 43 44 45 45 46 47 48 48 49 50 51 52 53 54 54 54 54 53 53 53 54 54 55 55 55 55 56 57 58 58 58 60 61 59 58 61 61 61 62 61 61 62 61 62 62 64 65 66 66 66 66 65 64 63 62 60 55 51 50 49 49 50 52 53 55 58 58 56 53 53 55 52 49 46 45 44 41 41 40 38 37 36 35 35 35
44 45 46 46 47 48 48 49 50 51 52 53 53 55 55 56 57 58 58 58 58 58 57 56 56 57 58 58 59 58 58 59 59 60 61 61 60 61 62 61 63 63 62 62 62 61 60 60 60 62 63 63 64 65 65 64 63 61 59 55 51 51 51 52 54 55 56 57 60 61 58 56 55 57 55 51 49 48 45 44 43 42 40 38 37 36 35 35
48 48 49 50 50 51 52 53 54 55 56 57 58 59 60 60 61 62 62 62 63 63 62 61 60 59 60 61 62 61 61 61 61 62 62 61 61 62 62 62 64 64 63 63 63 62 60 60 60 60 60 60 60 61 62 62 61 60 58 53 51 53 54 56 56 57 58 59 62 63 61 59 57 59 58 54 53 50 47 47 45 44 42 40 38 37 36 36
51 51 52 52 54 55 56 57 58 60 61 62 63 64 65 65 66 66 67 67 67 67 67 67 66 64 63 63 64 64 65 65 65 65 64 64 63 63 62 63 64 64 64 64 63 62 61 61 60 60 59 58 58 58 58 58 58 58 56 53 52 55 57 58 59 60 61 62 64 66 64 60 59 61 59 57 54 51 50 49 47 45 43 42 40 39 38 38
53 53 54 55 56 58 60 61 63 65 66 67 69 69 70 71 71 71 72 72 72 72 72 72 71 70 69 68 67 67 68 69 69 69 67 66 65 63 63 63 64 64 63 63 63 62 62 62 61 61 59 58 57 56 54 55 55 54 52 51 53 56 57 59 61 62 63 64 65 67 65 62 61 61 60 58 55 52 53 51 48 46 45 43 42 41 40 40
53 54 56 58 59 61 63 65 67 69 71 72 74 75 76 76 77 77 77 78 78 78 77 77 76 75 74 73 72 70 70 71 73 73 70 68 66 65 64 65 65 65 64 63 62 62 62 61 61 60 59 58 58 56 55 55 54 52 50 50 51 54 56 58 61 63 64 65 66 67 66 64 62 60 59 58 55 54 54 52 50 48 48 46 44 44 42 42
54 56 58 60 62 64 67 69 71 73 75 77 79 80 81 82 82 83 83 84 84 84 83 82 81 80 79 78 78 75 74 75 76 76 73 71 69 67 67 66 66 66 64 63 62 61 61 60 60 60 59 58 57 56 56 57 55 52 51 51 50 52 54 56 59 62 64 65 66 68 67 65 64 62 60 57 55 55 53 52 52 51 50 48 47 47 45 44
57 59 61 62 65 67 70 73 75 78 80 82 84 86 87 88 89 89 90 90 90 90 89 88 87 85 84 83 82 79 79 81 79 76 76 75 73 71 69 69 68 67 65 63 62 61 61 60 59 59 58 57 56 56 56 57 55 52 51 52 51 52 53 55 57 59 62 63 65 66 65 65 65 63 60 58 57 55 53 52 53 53 53 51 50 50 48 47
59 60 62 64 67 70 73 77 80 83 86 88 90 92 93 94 95 96 97 97 97 97 96 95 93 91 89 87 86 83 85 87 82 78 78 78 78 74 72 70 70 68 66 64 62 61 61 60 60 59 58 57 56 55 55 54 52 50 51 52 53 53 54 55 56 58 59 61 62 63 63 64 66 63 60 59 59 57 55 54 53 54 54 52 52 52 51 50
59 61 63 66 70 74 78 82 86 89 92 94 96 98 100 101 102 103 103 104 104 104 103 102 100 98 94 92 89 86 90 91 85 83 81 80 81 79 76 73 72 71 68 66 64 62 62 61 61 60 58 57 55 54 53 51 49 49 50 51 51 51 53 54 55 56 58 59 59 60 60 62 64 60 56 59 61 60 58 57 55 55 54 53 53 53 52 52
57 60 63 68 73 78 82 86 89 93 95 98 100 102 104 105 106 107 108 109 110 109 109 107 105 103 100 97 93 90 96 95 88 87 85 83 83 82 80 78 76 75 72 69 67 65 64 63 62 60 58 57 55 53 53 51 49 49 49 48 48 48 48 49 51 53 55 57 57 58 58 59 59 54 53 60 64 62 60 59 58 57 56 54 53 53 52 52
57 61 65 71 76 80 83 85 87 89 92 95 97 99 101 103 105 106 108 109 111 112 112 111 109 106 103 100 96 97 102 99 91 91 89 86 86 85 84 82 80 79 77 74 71 69 67 65 62 60 58 57 56 55 53 51 50 49 48 47 46 46 45 45 47 49 51 53 55 56 56 55 54 51 54 61 63 62 60 59 59 59 58 56 55 54 53 53
59 64 68 72 75 76 76 77 79 80 83 85 87 89 92 94 96 99 101 104 106 107 108 108 107 105 102 100 100 104 108 102 95 93 91 89 88 88 87 86 85 83 81 79 76 73 71 68 64 61 59 58 57 56 54 52 51 50 49 48 47 46 44 44 45 47 48 49 51 53 50 49 51 52 57 61 61 60 57 57 59 59 59 59 58 56 55 55
62 66 69 70 69 68 68 69 70 72 74 77 79 81 83 85 88 91 94 96 97 97 97 96 96 97 95 96 104 110 110 105 100 97 94 93 92 91 90 89 88 87 85 83 80 78 75 72 68 65 62 59 59 58 56 54 52 51 51 49 47 45 43 43 45 46 46 47 49 48 43 44 50 53 58 60 59 58 56 56 56 57 58 59 59 59 58 58
64 67 69 67 65 63 63 65 65 66 68 70 72 74 76 79 82 85 87 89 89 87 86 85 85 85 84 88 101 109 110 108 104 101 98 96 95 94 92 91 90 90 89 87 84 81 78 75 72 69 65 63 62 61 58 56 53 52 51 48 46 45 43 44 45 44 45 47 48 43 37 41 48 52 56 58 57 57 55 55 55 55 56 58 59 59 60 60
67 70 70 66 63 61 61 61 61 61 62 64 66 68 71 74 77 80 81 82 80 79 79 78 77 76 75 82 93 100 106 111 108 105 102 99 97 96 94 93 92 92 92 91 88 84 82 78 75 73 69 67 65 63 61 59 56 53 50 48 47 46 44 45 45 44 45 47 45 40 36 42 49 52 54 54 54 55 54 55 56 55 55 57 58 58 59 59
71 74 72 67 62 60 59 58 56 57 57 59 61 64 67 69 72 74 75 74 71 71 71 70 69 69 71 78 87 93 100 107 107 106 105 102 99 97 96 96 94 94 95 94 91 87 84 82 79 76 73 69 67 66 64 60 56 53 51 49 48 48 47 46 46 46 47 46 45 42 40 45 50 53 52 51 52 52 52 53 55 56 56 58 58 57 56 55
75 76 74 67 62 59 57 55 54 53 53 54 56 59 61 64 66 67 68 66 62 63 62 60 61 63 69 75 83 90 95 98 100 103 105 104 101 98 97 98 97 96 97 96 94 90 87 85 82 79 75 72 68 66 63 59 57 56 55 53 52 53 52 50 50 51 51 50 47 44 43 47 52 54 51 49 50 50 50 51 52 54 56 57 57 55 53 53
78 79 76 69 63 59 57 55 52 50 49 50 52 54 56 58 61 61 62 60 56 57 56 52 54 58 66 73 78 86 89 90 92 96 102 105 103 100 99 99 99 99 98 97 95 94 91 88 85 81 76 71 68 65 63 62 61 61 61 59 58 58 57 55 56 57 56 52 48 45 44 48 53 54 51 48 47 47 47 49 50 51 53 55 55 53 53 52
80 82 78 71 64 60 57 55 51 48 46 47 49 50 51 53 55 56 57 54 49 52 53 48 49 54 62 68 73 78 81 83 85 89 96 103 104 102 100 101 101 101 100 97 96 96 95 91 86 80 76 73 71 70 68 67 66 65 64 63 61 60 59 58 59 59 57 53 49 46 46 49 53 55 52 47 45 45 45 46 47 49 51 52 52 52 52 52
83 84 81 74 66 62 59 55 51 47 46 46 46 46 46 47 48 48 50 49 43 44 49 46 45 50 56 62 66 70 73 77 81 84 89 96 104 104 102 103 103 102 101 99 98 97 97 93 86 82 81 80 78 76 74 71 69 67 66 64 62 61 61 61 60 60 58 53 50 48 47 48 52 55 53 47 44 44 43 43 44 46 49 49 49 49 50 51
86 87 84 77 69 64 61 56 51 48 46 46 44 42 41 42 42 41 42 43 39 38 43 43 42 46 51 56 60 64 69 73 78 83 84 90 100 105 106 105 104 104 104 103 100 98 94 90 88 87 86 84 82 80 78 75 72 71 68 66 64 62 62 62 61 60 57 54 52 50 48 48 51 55 53 47 44 45 44 43 43 43 45 46 47 47 46 46
88 89 87 80 72 66 63 58 52 49 47 46 43 40 38 38 37 36 34 35 36 36 38 38 39 43 47 52 56 60 66 71 77 81 81 84 94 103 107 107 106 107 106 104 100 96 92 88 90 92 90 88 85 83 80 77 75 73 70 68 65 64 63 62 62 61 58 55 53 51 49 49 50 53 51 47 46 46 44 43 42 41 41 43 44 44 43 42
89 90 89 83 75 69 65 60 53 50 48 46 43 39 36 35 33 32 30 29 31 33 34 34 35 39 43 47 52 57 62 68 75 78 77 80 89 98 105 108 108 108 106 103 100 97 93 91 92 92 92 90 88 86 83 80 76 74 72 69 67 66 65 64 64 62 58 56 54 52 49 48 49 51 50 47 47 47 45 44 42 41 41 41 41 40 39 40
91 91 90 85 78 72 67 61 55 51 48 45 43 38 34 34 32 29 27 26 28 30 31 32 32 35 39 43 48 53 59 66 73 75 74 79 87 93 100 107 108 107 106 104 102 99 96 94 94 92 92 91 89 87 84 82 79 76 74 72 70 69 68 67 66 63 59 55 54 52 49 47 48 50 49 47 46 47 46 45 43 43 42 40 39 37 37 39
91 92 91 87 80 75 69 62 56 52 48 44 43 39 34 32 30 28 25 24 25 27 29 31 31 32 36 39 44 50 56 63 68 69 71 79 86 89 95 102 106 106 106 105 104 100 97 96 95 93 91 90 89 87 85 83 81 78 76 75 74 72 70 70 67 64 59 56 55 53 49 47 48 48 47 45 44 46 47 46 45 44 42 40 39 37 37 37
92 93 92 88 82 76 71 63 57 52 47 43 42 40 36 33 30 27 25 23 23 24 27 29 29 30 33 36 40 46 53 58 61 63 69 77 83 86 90 96 103 106 106 106 104 100 98 96 95 93 91 90 88 85 83 83 81 78 78 77 76 74 73 72 69 65 60 58 57 53 50 48 47 46 45 41 40 42 43 44 45 44 42 41 40 38 37 35
92 93 93 90 83 77 72 64 57 53 47 42 40 40 38 35 31 27 24 22 21 22 24 26 27 28 29 32 36 43 47 51 54 58 66 74 79 83 86 92 100 106 107 105 103 100 98 96 95 94 92 88 86 84 83 82 80 79 79 79 77 76 75 73 70 66 62 59 56 52 49 47 45 45 42 39 35 34 36 40 43 44 43 43 42 40 38 36
92 93 94 92 84 78 72 64 57 53 47 41 40 39 37 35 32 28 24 21 20 20 21 22 24 25 26 28 33 38 42 44 48 54 64 72 77 80 84 89 96 104 107 105 102 101 100 98 96 95 93 89 86 85 83 82 79 79 80 79 78 77 75 74 70 66 62 59 55 52 50 47 45 44 41 36 32 30 32 36 40 43 44 44 43 41 40 39
92 92 94 93 86 79 73 65 58 53 47 41 39 38 36 33 31 28 25 21 19 17 17 19 21 21 22 25 29 33 37 40 44 53 62 69 75 79 83 87 92 100 105 105 103 102 102 100 97 96 94 91 89 87 85 82 80 80 79 79 78 76 75 73 69 66 62 56 53 52 49 47 45 43 39 35 33 32 32 33 36 39 42 43 44 43 42 42
91 91 93 93 88 80 74 66 58 53 47 41 39 37 35 31 28 25 23 21 18 16 14 16 17 18 20 22 25 29 34 37 42 50 58 64 71 77 81 85 88 95 101 104 102 101 101 100 98 96 94 93 91 89 87 84 82 80 79 77 76 75 74 72 68 65 59 53 53 52 49 46 43 41 39 36 35 34 32 32 34 37 39 42 43 43 43 43
90 90 92 93 89 81 75 68 59 53 48 42 39 37 34 30 26 23 20 19 18 15 13 13 15 16 17 20 23 27 31 35 40 47 54 59 67 74 79 83 86 91 97 101 102 101 100 100 99 97 95 93 92 90 88 86 82 80 78 75 74 72 71 68 64 60 54 52 53 52 48 44 40 41 40 37 36 35 33 34 35 35 37 39 40 41 42 42
90 88 91 93 89 82 75 69 61 54 49 42 39 37 34 29 25 21 18 17 16 15 13 11 12 13 15 18 21 24 28 33 37 43 50 55 62 71 77 82 85 88 93 99 102 102 100 99 99 98 95 93 92 90 87 83 80 78 76 73 71 69 66 62 59 56 53 52 53 52 48 42 39 42 41 38 38 38 37 36 34 33 34 36 37 39 41 42
90 87 89 92 89 82 75 69 62 55 50 44 39 37 34 30 26 23 19 16 15 14 12 10 10 11 13 15 19 23 26 30 34 40 47 53 59 66 73 78 83 86 90 97 102 102 100 98 96 96 94 91 90 88 86 83 80 78 77 74 71 67 62 59 57 55 52 52 53 51 47 41 39 42 43 40 40 39 37 35 33 32 34 34 35 38 40 42
89 86 88 91 89 83 75 69 62 55 50 45 40 37 34 29 26 23 20 18 15 13 11 9 8 9 10 13 17 21 24 28 32 37 43 50 55 62 69 74 79 83 87 93 99 102 101 98 96 95 94 91 89 88 88 86 84 82 80 76 72 67 63 61 59 57 55 54 53 50 45 40 40 44 46 43 41 39 37 35 33 33 34 33 34 37 40 43
89 85 86 90 90 83 76 69 62 55 50 44 40 38 35 31 27 23 21 19 16 13 10 7 5 6 8 11 15 19 22 26 30 34 40 46 51 59 67 72 77 81 85 89 95 100 102 100 98 97 95 93 90 90 89 88 85 83 81 75 71 67 64 62 60 59 57 55 53 50 46 43 42 46 48 45 41 39 38 37 35 34 34 33 34 37 40 43
88 85 85 88 89 84 76 69 62 56 51 46 40 37 35 33 29 25 22 19 16 14 9 5 3 3 6 9 12 16 20 24 28 32 37 42 48 56 64 70 74 79 83 87 92 98 101 102 100 98 97 95 93 91 90 89 86 83 79 75 73 70 66 63 61 59 56 53 52 50 47 44 43 46 48 45 41 40 39 38 37 35 34 34 35 38 40 42
87 84 83 86 88 84 76 69 63 56 51 47 41 37 35 33 29 26 24 20 17 14 9 4 2 1 4 6 9 12 17 21 25 30 34 39 46 53 60 66 71 77 81 85 90 96 101 103 102 100 98 97 95 93 91 89 87 84 80 77 75 71 66 64 62 59 56 54 52 50 47 45 43 45 49 46 42 41 40 39 38 37 36 36 37 38 39 40
86 83 82 84 86 84 77 70 64 57 51 47 42 38 36 33 29 27 24 20 17 13 9 6 4 4 4 5 7 10 14 18 23 27 32 38 44 51 58 63 69 75 79 83 88 94 99 102 102 101 99 97 95 92 88 86 86 85 82 80 77 72 68 65 63 60 58 56 54 52 49 45 43 46 50 48 43 42 41 40 40 39 38 38 38 38 38 39
84 82 82 84 85 83 78 71 65 59 52 46 41 38 36 34 31 27 24 20 16 13 9 7 7 7 6 6 7 9 12 16 21 25 30 36 42 48 55 61 67 73 77 81 85 91 96 99 100 100 98 95 92 88 86 85 85 83 81 79 76 72 69 67 65 62 60 58 57 54 50 47 45 48 51 49 44 42 42 42 41 40 40 39 38 37 36 37
82 80 81 83 85 83 77 71 66 59 52 47 42 38 36 34 30 26 23 20 16 13 10 8 7 9 8 7 7 9 11 15 19 24 29 34 40 46 53 59 65 71 75 79 83 88 93 97 97 97 94 91 88 88 88 87 86 84 80 78 75 72 70 68 65 63 61 60 59 55 52 49 47 49 52 49 44 43 43 42 42 41 40 39 37 35 35 35
81 78 79 82 84 82 77 70 64 58 51 47 43 38 35 33 30 26 22 19 16 13 11 9 7 9 10 8 7 9 11 15 19 23 27 32 38 44 51 58 64 69 74 77 81 86 90 93 94 93 91 90 90 91 90 89 88 86 83 80 76 72 70 67 65 64 63 61 59 56 54 51 49 51 52 49 46 45 44 43 43 42 40 38 37 36 34 33
80 77 76 79 83 82 77 69 63 57 51 46 42 38 35 33 30 25 21 19 17 13 12 11 8 9 10 8 7 9 12 16 19 23 26 31 36 41 48 56 63 68 72 75 78 82 87 90 91 92 92 93 93 93 92 90 88 86 84 81 77 73 71 70 68 67 64 61 59 57 54 52 51 53 53 50 48 46 45 45 44 42 40 39 39 37 34 33
78 75 74 76 80 81 77 69 63 57 51 46 42 37 34 33 30 25 21 19 17 14 13 13 10 7 9 9 8 9 12 15 19 23 27 31 36 41 48 56 62 67 71 73 75 80 85 89 91 92 94 95 95 94 91 87 84 82 80 79 77 75 74 72 70 67 64 61 58 56 54 52 52 54 54 51 49 47 46 46 44 43 42 41 40 38 35 33
77 74 73 74 78 79 76 69 63 57 50 45 41 36 33 32 30 26 21 18 16 15 13 13 12 8 7 8 9 9 10 14 18 22 26 30 35 42 50 56 61 66 69 72 74 79 84 88 90 91 91 89 87 84 80 78 76 77 78 78 77 76 74 72 70 67 63 60 57 55 54 52 52 54 54 52 50 48 47 46 45 44 43 42 41 38 36 34
75 73 73 74 76 77 74 68 62 57 50 44 40 37 32 31 29 25 21 18 16 14 14 14 14 11 7 7 8 10 10 12 16 20 25 29 34 42 49 55 59 62 65 68 71 75 80 85 87 87 86 83 79 75 74 74 75 75 76 76 76 75 73 72 69 66 63 60 57 55 53 52 53 54 54 52 51 49 48 47 46 45 44 43 41 38 37 35
72 71 71 72 75 76 73 67 61 56 50 44 39 36 32 30 29 26 20 17 16 15 14 14 14 12 8 6 7 10 11 12 15 19 23 28 33 39 44 50 55 58 61 64 67 70 75 81 83 83 82 81 80 79 77 76 76 76 75 74 74 74 72 70 67 65 63 60 58 56 54 53 53 54 53 53 51 50 49 48 47 46 46 44 41 39 38 36
69 68 68 69 73 75 73 68 61 55 49 43 38 35 32 29 28 25 20 17 16 15 14 13 13 12 9 6 6 9 11 12 15 18 22 26 29 34 39 46 52 57 60 62 64 67 72 77 79 80 80 79 79 79 79 78 76 76 75 74 73 71 70 67 66 64 62 60 58 57 55 53 53 52 53 52 51 50 49 48 48 47 46 44 42 40 39 37
69 67 67 68 71 74 72 66 60 54 48 43 38 34 31 28 27 25 20 16 15 15 14 13 12 11 9 6 6 9 12 13 14 17 21 25 28 31 37 43 48 53 58 61 63 64 68 73 76 78 79 78 77 76 76 76 75 74 74 73 71 70 68 66 65 64 62 60 58 56 55 53 53 52 52 52 51 50 49 49 48 47 46 44 42 41 40 38
67 66 67 68 70 72 70 64 58 52 47 41 36 33 29 27 26 25 20 15 14 14 14 13 12 11 9 7 6 8 12 14 15 16 19 23 28 32 37 41 46 50 55 59 61 62 65 69 73 76 77 78 77 75 74 73 73 73 72 71 71 69 67 65 64 63 60 58 56 55 54 54 54 53 53 52 51 51 50 49 49 48 46 44 43 42 40 38
64 63 64 66 68 70 68 63 57 51 46 41 35 31 28 26 25 23 18 14 14 14 14 13 12 11 9 8 7 8 12 14 15 17 19 23 29 33 37 41 44 48 53 56 57 60 63 67 71 74 76 77 76 75 73 72 72 71 70 69 68 67 65 64 62 60 58 56 54 53 54 54 54 54 53 52 52 52 51 50 49 48 46 45 43 43 41 38
61 60 61 63 67 68 67 62 56 50 45 40 35 31 28 25 23 22 17 13 13 14 13 13 12 11 9 8 7 9 12 15 15 18 20 24 28 33 36 40 43 48 51 53 55 59 63 65 68 72 74 75 75 74 73 72 70 69 67 66 65 64 63 62 60 58 57 54 52 52 54 55 54 53 52 52 52 53 52 51 50 49 47 45 44 43 42 38
Wind_Direction
281 281 280 279 278 277 276 275 274 272 271 270 270 269 269 268 267 266 265 263 261 260 258 257 255 254 252 251 249 247 245 244 243 242 241 241 239 237 237 236 237 236 235 235 236 235 235 235 236 236 236 236 236 237 236 236 236 236 236 235 232 231 231 230 230 230 230 234 242 243 243 242 242 243 242 241 239 239 238 236 235 233 231 231 232 235 238 242
280 279 278 277 276 275 274 273 272 271 270 269 268 267 267 266 265 265 264 263 262 260 258 256 254 253 252 250 249 247 245 243 243 242 241 241 239 237 237 236 236 236 235 235 235 235 235 235 235 236 236 236 236 236 237 236 236 236 236 233 230 230 229 229 229 229 229 233 240 243 242 241 241 243 242 240 239 238 238 237 235 234 233 231 230 233 237 241
281 280 279 278 277 275 274 272 271 270 269 268 267 266 265 264 264 263 262 261 261 260 258 256 254 252 251 249 248 247 245 243 242 241 241 240 239 237 237 236 236 235 235 234 235 235 235 235 234 234 235 235 235 235 236 236 236 236 235 233 230 229 229 229 229 229 230 232 237 242 242 240 240 242 242 240 239 238 238 238 236 235 234 232 230 231 234 238
282 281 280 279 278 277 276 274 272 271 269 268 267 265 264 263 262 261 260 260 259 258 257 256 254 252 250 248 247 246 244 243 242 241 240 239 238 237 236 236 236 235 234 234 234 234 234 234 234 233 233 234 234 234 235 236 236 235 235 232 230 229 228 228 228 229 229 231 235 239 241 240 240 241 242 241 240 240 240 239 238 237 235 233 231 230 232 234
282 281 280 279 278 278 277 276 275 273 272 271 269 267 266 264 262 261 260 258 257 256 255 254 253 252 250 248 246 245 244 243 242 241 239 238 237 237 236 235 235 235 233 233 233 233 233 233 234 234 233 233 233 233 233 234 233 233 232 230 228 228 228 228 228 229 229 230 233 238 240 240 240 241 241 241 240 240 240 240 239 239 238 235 233 232 232 234
282 282 281 280 280 279 279 278 277 275 274 273 271 270 268 266 265 263 261 259 257 256 254 253 252 250 249 248 246 244 242 242 241 240 238 237 237 236 236 235 234 234 233 232 232 232 231 232 232 233 233 232 232 232 232 232 231 229 228 227 226 226 227 227 228 229 230 231 233 237 239 240 241 241 242 242 241 240 241 241 241 240 239 237 236 233 232 233
284 284 284 283 283 283 282 281 280 278 276 274 272 271 269 267 266 264 262 260 258 256 255 253 251 250 248 247 246 244 242 241 239 239 238 237 236 234 234 234 233 233 231 230 230 231 230 230 230 231 231 231 231 231 231 231 229 227 227 226 224 224 225 226 228 229 230 231 232 235 238 239 241 241 242 243 242 242 241 241 242 241 240 239 238 236 234 233
286 286 286 286 286 285 284 283 281 279 277 275 274 272 270 269 267 265 264 262 260 259 256 254 252 250 248 247 246 244 242 241 238 237 237 236 234 233 232 232 232 231 230 229 228 229 229 228 228 228 229 229 229 229 229 230 229 227 226 226 224 223 224 225 226 228 230 231 232 235 237 239 240 241 241 243 243 243 242 241 241 242 241 239 239 238 236 235
286 286 287 286 286 285 283 282 280 278 276 275 274 272 271 270 268 267 265 264 262 261 259 257 255 252 249 247 246 244 242 242 239 236 235 235 234 232 231 231 230 230 229 227 227 227 227 227 226 226 226 226 226 226 227 229 228 226 226 226 225 223 223 225 226 227 229 231 233 234 236 238 240 240 241 243 244 243 242 241 240 241 241 240 240 240 239 237
287 286 286 285 284 283 281 279 278 276 275 274 272 271 270 269 268 267 266 265 263 262 261 259 257 255 252 249 247 244 242 242 240 237 234 233 234 232 230 229 228 228 227 226 225 225 225 225 225 224 224 224 224 224 225 225 225 224 224 225 225 224 224 226 227 228 230 231 233 234 235 238 240 240 242 244 244 243 242 242 241 241 241 241 241 241 241 240
288 287 286 286 285 283 282 280 278 277 275 273 272 271 269 268 267 266 265 264 263 262 261 260 258 256 253 251 248 244 242 242 240 237 234 232 232 231 229 228 226 226 226 225 223 223 224 224 223 223 222 222 221 221 221 221 221 221 221 221 222 222 223 226 228 230 231 232 233 234 235 237 240 241 242 243 243 242 241 241 241 241 241 240 241 242 242 242
290 290 291 291 289 287 285 282 280 277 275 273 272 270 269 268 266 265 264 262 261 261 260 259 258 256 254 251 248 243 242 242 240 237 235 232 231 230 229 227 226 225 224 224 223 222 223 223 223 222 221 220 220 220 220 220 219 220 219 219 220 220 220 223 227 230 232 233 235 235 236 238 241 240 240 242 242 242 241 241 242 241 241 241 240 241 242 243
296 298 299 298 295 292 288 285 282 279 277 275 273 271 270 268 267 265 264 262 261 260 259 258 257 256 254 251 246 242 241 242 240 237 235 232 230 229 228 227 226 225 224 223 222 221 221 222 222 221 221 221 221 221 220 220 219 219 218 217 218 219 219 222 225 229 231 233 235 236 236 239 240 239 240 241 243 243 242 242 242 242 242 242 241 240 240 241
305 307 308 306 302 299 295 291 287 284 281 279 276 274 272 270 268 266 265 264 263 262 261 259 258 256 253 250 244 242 242 242 240 237 234 231 230 228 227 226 226 225 224 223 222 221 220 220 221 221 220 221 222 222 221 221 220 219 219 218 219 221 220 222 226 229 231 233 235 236 235 238 240 239 240 242 243 243 243 243 243 242 242 242 241 240 240 240
315 318 318 316 311 307 302 297 293 289 285 282 279 276 273 271 269 268 267 266 265 265 264 262 260 257 254 249 244 242 242 241 239 236 233 230 229 228 227 226 225 225 224 223 222 221 220 220 220 221 220 220 222 223 221 221 222 222 222 221 222 223 222 225 227 230 233 234 236 237 234 237 240 239 240 242 242 243 242 243 243 242 242 242 242 241 240 239
326 328 327 323 318 313 308 303 298 294 290 286 282 278 275 272 270 269 269 269 268 268 266 263 261 258 254 249 245 243 241 239 238 235 232 230 228 227 226 225 224 225 224 224 223 221 220 220 220 220 220 220 222 223 223 222 222 223 223 223 224 224 224 228 231 231 235 236 237 236 232 235 239 239 239 240 242 242 242 243 243 242 242 242 242 241 241 240
333 335 334 328 323 319 314 308 304 299 293 289 284 280 278 275 273 273 272 272 271 269 266 263 259 255 251 247 244 243 239 237 236 234 232 229 227 225 225 225 224 224 224 224 223 221 221 220 220 220 220 220 221 223 224 222 223 225 225 225 226 228 228 231 235 235 237 238 238 235 230 233 238 239 239 239 241 242 242 243 243 244 243 243 244 243 243 242
338 340 338 332 328 325 319 314 309 303 297 291 287 283 281 279 278 277 276 275 274 270 266 261 256 251 246 242 240 239 238 236 235 233 231 229 226 224 224 224 224 223 224 224 223 221 221 220 220 220 219 219 221 223 225 224 225 227 227 226 226 229 229 231 235 237 237 237 236 234 230 233 238 240 239 239 241 242 242 243 244 245 245 246 246 246 246 245
342 343 341 336 333 330 325 320 315 308 302 295 290 286 284 282 281 280 279 278 276 273 267 260 252 246 241 238 235 235 235 234 233 231 230 228 226 224 223 223 223 223 223 223 223 222 221 220 220 220 220 220 221 224 226 225 225 226 226 226 226 228 229 230 233 236 237 237 236 235 233 233 238 241 240 239 241 242 243 244 245 246 247 247 247 247 247 247
345 346 344 340 337 335 331 326 320 314 307 300 295 291 288 285 283 282 280 279 276 272 268 260 251 244 239 237 235 233 232 231 231 229 228 227 225 223 222 222 222 223 223 223 222 222 221 220 220 220 221 222 222 224 224 224 224 225 226 226 226 227 230 231 233 237 238 238 238 237 236 236 239 241 241 240 241 244 245 245 245 246 248 248 248 248 248 248
347 348 347 343 341 340 336 331 325 319 312 306 301 297 293 289 286 284 282 281 275 269 266 261 252 244 239 237 235 234 232 229 228 227 225 224 224 223 221 221 221 222 222 222 222 221 221 220 219 219 221 222 222 223 224 223 224 225 225 226 226 227 230 232 234 236 238 239 239 239 238 238 240 242 242 241 241 243 245 246 246 247 248 249 250 250 250 250
349 350 349 346 344 343 340 335 330 324 318 312 307 303 298 293 289 286 284 283 278 268 262 259 252 245 239 236 234 232 231 228 226 224 222 221 221 221 220 219 220 221 221 221 221 221 221 220 219 219 220 221 222 223 224 223 224 225 225 226 227 228 230 232 234 236 238 239 239 239 239 239 240 242 243 241 241 242 243 245 246 247 249 251 251 251 251 252
350 352 351 348 346 346 343 339 334 328 323 319 314 310 305 299 295 291 287 283 279 271 263 257 250 244 238 235 232 228 227 226 224 223 218 217 219 219 219 218 218 219 221 221 221 221 220 220 219 220 220 221 222 223 224 224 224 225 226 226 228 229 230 233 235 236 237 237 238 238 238 238 240 243 244 242 240 241 242 243 246 247 249 251 252 252 253 253
351 353 353 350 348 348 346 342 337 333 328 324 320 317 313 306 301 298 293 285 277 271 265 258 250 244 238 233 230 227 225 223 223 222 216 214 217 217 217 217 217 217 219 220 220 219 219 219 219 219 219 220 221 222 223 224 224 226 227 227 228 230 231 233 235 236 236 236 237 238 237 238 241 243 244 241 238 239 241 242 244 246 248 250 251 253 252 251
352 353 354 352 350 350 348 344 340 336 333 328 324 323 320 314 308 305 299 289 278 272 266 261 252 244 239 233 229 226 224 222 222 220 215 212 215 215 215 216 216 216 217 219 219 218 217 218 219 219 218 219 220 221 222 223 224 225 226 227 228 229 231 232 234 236 236 236 237 237 237 238 240 241 242 241 238 238 239 241 243 245 247 249 251 251 251 250
352 354 355 353 352 351 349 346 343 340 336 332 328 328 328 322 316 312 305 293 282 274 267 261 254 247 241 234 228 226 225 223 221 218 213 212 213 213 213 214 215 215 215 217 218 217 217 217 218 219 218 218 219 220 221 222 223 223 225 226 227 228 230 232 233 235 235 235 235 236 235 236 237 240 242 242 240 239 240 241 243 245 247 249 250 250 249 251
353 354 355 354 354 352 350 348 345 342 339 336 333 333 334 330 324 320 312 300 288 277 268 262 256 249 243 235 229 227 226 224 222 217 213 212 212 211 211 212 213 214 215 216 216 217 216 217 218 219 219 219 219 219 220 221 222 223 224 225 226 227 229 231 232 233 233 233 233 234 233 234 236 239 241 242 241 241 242 243 245 246 247 248 248 248 249 250
353 355 356 355 354 353 351 349 346 344 343 340 338 337 337 334 329 324 317 306 295 283 273 265 258 251 244 237 230 228 227 225 222 217 213 212 211 210 210 209 211 212 214 214 215 216 216 216 217 218 219 219 219 219 219 220 221 221 223 225 225 226 228 229 230 231 230 231 232 232 232 233 235 238 240 241 241 241 242 243 245 246 245 246 246 247 247 247
354 355 356 356 355 354 352 350 348 346 345 343 343 341 338 336 333 328 324 315 303 291 279 269 261 253 244 237 231 228 227 224 221 217 214 212 209 208 208 208 209 210 212 213 213 214 215 216 216 217 218 218 218 219 219 219 219 220 222 223 224 225 227 228 229 230 229 229 231 231 232 232 234 237 238 239 240 239 239 241 242 243 243 244 245 246 246 245
354 355 357 356 355 354 353 351 350 348 347 347 347 344 341 338 334 329 326 322 313 301 287 273 263 254 243 236 230 226 224 221 218 217 215 211 208 207 206 207 207 208 210 212 211 212 213 214 215 217 217 217 217 218 218 219 219 219 221 222 223 224 225 227 228 228 228 229 230 231 231 231 233 236 238 238 238 237 238 240 242 243 244 244 245 245 245 245
354 356 357 357 356 355 353 352 351 349 347 349 350 347 343 339 333 327 327 326 322 312 293 275 263 252 240 232 226 223 221 218 216 215 216 212 208 206 205 205 206 206 208 210 211 211 212 213 214 216 216 216 217 217 217 218 218 219 220 221 222 223 224 225 226 227 227 227 229 230 229 230 232 237 237 236 238 238 240 242 243 243 243 244 245 246 247 247
354 356 357 357 356 355 354 352 352 350 349 350 352 349 344 338 332 329 331 334 330 320 300 278 263 249 237 227 221 218 216 215 214 213 214 212 209 206 204 204 204 205 206 208 210 211 211 212 213 215 216 216 217 218 218 218 218 219 221 221 222 223 224 225 226 228 227 227 228 229 228 228 230 235 236 236 239 240 240 241 242 243 245 246 246 247 247 248
354 356 358 358 356 356 354 353 352 351 350 350 353 351 343 337 334 333 335 340 337 325 307 283 265 249 235 224 217 214 213 212 212 211 211 211 209 206 204 202 202 203 204 206 208 211 211 211 212 214 216 216 216 218 219 220 220 221 222 222 223 224 225 226 227 227 225 225 227 228 227 226 228 234 237 236 239 241 241 242 243 246 248 248 248 247 247 248
354 356 358 358 357 356 355 354 352 352 350 350 354 352 345 340 339 338 338 344 344 330 311 289 266 249 233 221 214 210 209 209 209 209 209 208 207 206 205 203 201 201 202 203 206 209 211 212 212 213 215 216 217 217 218 218 219 220 221 222 222 222 223 223 224 224 222 222 225 226 225 224 227 234 237 237 239 242 243 245 246 247 249 249 248 246 246 247
353 356 358 358 357 356 356 354 352 352 351 350 352 352 347 343 342 341 344 349 348 335 314 289 265 244 227 216 211 207 205 205 205 206 208 207 205 205 204 203 201 200 201 202 203 206 209 211 212 213 215 215 216 217 217 217 217 218 219 219 220 220 219 219 219 219 218 218 222 224 222 221 224 232 236 236 238 242 244 245 246 247 248 249 248 245 245 246
353 355 358 358 357 356 356 355 353 352 351 351 352 351 349 346 344 347 352 353 350 341 322 294 262 233 216 208 206 204 201 202 203 204 205 205 203 203 203 202 200 199 200 201 202 204 207 209 211 213 214 214 215 216 216 217 218 219 220 219 219 219 218 218 218 218 217 217 220 222 220 219 222 230 235 236 237 240 243 244 245 246 247 248 247 245 244 246
352 355 358 358 357 356 356 355 355 353 352 352 352 353 351 349 348 352 356 357 354 348 336 316 273 217 201 198 198 199 198 199 201 201 202 202 201 201 202 201 200 198 198 199 201 203 205 208 210 212 213 213 214 215 215 215 216 218 219 219 219 218 217 217 218 218 218 218 221 223 222 221 224 231 236 237 237 239 241 242 243 245 246 246 245 244 244 246
352 354 357 358 358 356 356 356 355 354 353 352 352 354 355 352 352 356 358 360 360 355 349 352 16 136 171 180 186 192 195 196 198 199 198 198 199 200 201 200 199 198 198 198 200 201 204 207 209 211 213 213 213 214 215 215 216 216 216 217 218 218 218 218 218 218 218 219 222 224 224 223 226 232 238 238 237 238 239 240 242 242 243 242 242 243 245 246
351 353 356 358 358 357 356 356 356 355 354 353 352 354 356 354 355 358 360 1 3 3 7 24 53 81 115 147 165 179 188 192 195 197 196 195 196 198 198 198 198 198 197 198 199 201 203 206 208 210 212 213 213 214 214 215 216 217 216 217 217 217 216 217 217 217 218 219 222 225 224 225 227 232 238 238 237 237 238 239 240 241 242 242 243 245 247 247
351 353 355 358 359 358 356 356 356 355 354 354 354 356 356 356 356 358 1 4 7 12 23 44 65 78 93 117 144 163 177 186 190 193 193 193 194 196 196 196 196 197 197 198 199 200 202 204 207 209 211 212 213 214 214 215 216 217 218 218 219 218 217 216 216 217 217 219 223 225 226 226 228 232 236 237 236 236 237 238 240 241 243 244 246 249 250 250
351 353 355 357 358 358 357 356 356 355 353 354 355 357 358 358 358 359 2 7 13 19 30 48 75 84 86 102 127 147 165 178 184 188 190 191 193 194 194 194 195 196 197 198 199 200 201 203 206 209 210 211 212 213 214 214 214 214 215 217 218 218 218 218 218 218 218 220 224 226 226 226 227 231 235 236 235 235 236 238 240 241 243 246 248 251 252 253
351 353 356 357 357 357 357 356 355 355 354 354 355 357 359 360 359 1 6 11 17 26 36 44 69 89 86 94 120 140 158 170 177 183 188 190 192 193 193 193 194 195 197 198 198 199 200 202 204 207 209 210 211 213 213 213 213 213 212 213 214 215 217 218 219 220 220 222 225 227 226 226 226 229 233 234 233 233 235 237 239 241 243 245 247 248 250 252
351 353 355 357 357 356 356 356 355 356 355 355 355 357 360 1 1 3 9 16 21 29 42 44 53 84 91 94 118 141 156 166 172 178 184 188 191 192 192 192 193 195 196 198 198 198 199 201 203 205 207 209 211 212 212 212 212 212 213 212 212 212 214 216 217 219 220 222 225 226 226 226 225 227 230 231 231 232 234 236 238 241 242 244 245 246 248 250
351 352 355 357 357 356 355 355 355 356 356 355 356 357 359 0 1 4 11 18 23 29 43 48 46 69 96 102 118 142 157 166 171 175 180 186 188 189 191 192 193 194 196 197 198 198 198 200 202 204 207 209 210 211 212 212 213 213 213 214 214 214 214 215 216 217 218 221 223 224 225 224 224 227 229 230 230 231 233 236 238 240 241 243 244 246 248 249
350 352 354 357 357 356 355 355 355 356 356 355 355 357 0 2 1 4 11 18 24 30 42 49 45 47 80 103 117 136 155 166 171 176 180 184 187 188 190 192 193 194 195 196 198 198 198 199 201 204 206 209 212 213 214 214 215 215 215 215 215 216 216 216 217 217 217 219 220 222 223 222 222 226 228 229 230 230 232 235 237 239 241 243 244 246 248 249
349 351 353 356 357 356 355 355 355 355 355 355 355 356 0 3 2 3 11 18 25 33 42 49 48 43 55 90 117 132 148 164 172 177 179 183 187 189 190 191 193 194 195 196 198 198 198 199 201 203 205 207 209 212 214 215 215 216 216 216 216 217 217 218 219 219 218 218 218 220 220 219 220 223 226 228 229 230 232 234 236 238 240 242 243 245 246 247
349 350 353 355 356 356 356 355 355 355 355 355 355 356 359 3 3 3 9 18 26 33 42 52 53 47 51 78 116 132 143 159 170 176 180 183 187 190 190 190 191 193 195 196 197 198 199 200 201 203 204 205 206 207 209 212 214 214 214 216 217 218 218 219 220 220 220 219 219 219 218 217 218 221 224 226 228 229 232 234 236 238 240 242 244 244 245 246
349 350 352 354 356 356 355 355 355 355 355 354 354 355 358 2 3 3 8 19 28 33 38 50 56 53 56 75 115 134 141 154 167 173 178 181 184 188 189 189 190 191 194 196 197 198 198 199 201 202 203 206 207 207 207 208 211 212 212 213 215 217 218 219 220 220 220 220 219 219 218 217 217 220 224 225 227 229 232 235 237 239 241 243 244 245 245 247
348 349 351 354 356 356 355 355 355 355 355 354 354 355 358 2 4 5 8 19 30 36 38 45 55 59 63 79 116 138 143 150 162 171 176 176 178 183 187 188 190 190 192 194 196 197 198 199 200 201 203 204 207 209 210 209 209 210 212 212 212 214 215 217 218 219 219 219 219 219 219 218 216 219 222 225 227 229 232 234 237 239 241 242 244 244 245 247
348 349 351 353 355 355 355 354 355 355 355 354 354 354 357 2 5 5 8 19 31 39 44 45 52 61 69 84 112 138 145 148 156 166 173 174 174 179 183 186 188 189 191 193 194 195 198 199 199 201 202 204 205 207 210 211 210 210 211 212 212 212 213 215 216 218 219 219 219 219 219 219 217 217 220 223 226 229 231 233 235 237 239 241 242 243 245 247
348 349 350 352 353 355 355 354 355 355 355 355 354 354 357 2 5 5 8 21 33 41 47 48 51 60 70 87 112 138 147 148 154 163 170 174 175 176 180 183 186 188 191 192 192 193 196 198 199 200 202 203 205 206 207 210 211 210 210 211 212 212 213 214 215 217 218 218 218 218 219 219 218 218 219 221 224 227 229 231 233 235 238 239 240 242 245 246
347 349 350 351 352 354 355 354 354 355 356 355 354 354 357 2 4 4 8 24 39 44 48 50 55 60 68 83 110 138 147 149 156 164 168 173 175 174 176 180 183 187 190 190 190 192 195 197 199 200 201 203 204 205 206 208 210 211 211 210 211 212 212 214 214 215 215 215 215 216 218 219 218 218 219 221 223 226 228 230 232 233 235 237 239 241 244 246
Height
10643 10641 10639 10638 10636 10635 10633 10632 10630 10629 10628 10627 10626 10624 10623 10623 10622 10622 10622 10622 10623 10624 10625 10626 10628 10629 10631 10632 10633 10634 10636 10637 10639 10642 10643 10643 10651 10654 10652 10655 10657 10658 10662 10664 10666 10669 10673 10677 10680 10683 10687 10690 10694 10698 10702 10706 10711 10714 10720 10729 10738 10743 10747 10749 10750 10749 10750 10744 10734 10735 10742 10750 10753 10753 10758 10765 10770 10773 10776 10781 10783 10786 10788 10790 10792 10794 10794 10794
10637 10635 10633 10632 10630 10628 10626 10625 10623 10622 10621 10619 10618 10617 10616 10615 10614 10614 10613 10614 10615 10615 10617 10618 10619 10621 10622 10624 10624 10627 10629 10630 10632 10633 10634 10638 10643 10644 10645 10649 10649 10651 10656 10658 10660 10664 10668 10672 10675 10677 10681 10685 10689 10692 10696 10701 10706 10711 10716 10725 10733 10737 10740 10740 10741 10741 10742 10740 10732 10730 10738 10746 10749 10748 10754 10762 10766 10769 10773 10776 10778 10781 10783 10786 10789 10790 10791 10792
10630 10628 10626 10624 10623 10621 10619 10618 10616 10614 10613 10611 10610 10608 10607 10606 10605 10605 10605 10605 10605 10605 10607 10608 10610 10612 10613 10615 10616 10618 10621 10622 10624 10624 10627 10631 10634 10635 10639 10642 10642 10645 10650 10652 10654 10659 10664 10667 10670 10672 10675 10680 10684 10687 10691 10696 10701 10706 10712 10721 10728 10730 10732 10733 10734 10736 10736 10736 10730 10726 10731 10741 10745 10744 10750 10757 10761 10766 10770 10771 10774 10777 10780 10783 10785 10787 10788 10788
10623 10621 10619 10617 10615 10613 10611 10609 10607 10605 10603 10602 10600 10599 10598 10597 10596 10595 10595 10595 10595 10595 10596 10597 10600 10602 10604 10605 10606 10609 10612 10613 10615 10615 10618 10622 10625 10629 10633 10635 10635 10639 10643 10645 10649 10654 10658 10660 10663 10667 10670 10675 10678 10682 10687 10692 10696 10701 10708 10716 10720 10721 10723 10726 10727 10729 10729 10729 10726 10722 10726 10736 10740 10740 10746 10752 10758 10763 10765 10766 10770 10774 10777 10780 10781 10783 10784 10785
10616 10615 10612 10610 10607 10605 10603 10600 10598 10595 10593 10591 10589 10588 10586 10585 10585 10584 10584 10583 10583 10584 10584 10586 10588 10590 10593 10594 10596 10599 10601 10603 10604 10605 10609 10613 10618 10623 10625 10628 10629 10632 10637 10640 10644 10648 10651 10654 10658 10661 10666 10670 10673 10678 10683 10686 10690 10695 10702 10708 10711 10714 10717 10719 10720 10721 10722 10723 10722 10719 10723 10731 10734 10737 10743 10748 10755 10759 10760 10763 10768 10771 10772 10776 10777 10779 10780 10781
10609 10607 10604 10602 10599 10597 10594 10590 10588 10585 10582 10580 10577 10575 10573 10573 10572 10571 10571 10570 10570 10570 10571 10573 10575 10577 10580 10582 10584 10588 10590 10592 10592 10594 10601 10606 10611 10616 10618 10620 10622 10625 10630 10634 10638 10641 10645 10649 10652 10656 10660 10664 10668 10673 10677 10679 10683 10690 10696 10699 10704 10708 10710 10712 10713 10714 10716 10719 10719 10717 10720 10726 10729 10735 10739 10744 10751 10754 10756 10760 10764 10766 10768 10771 10773 10774 10776 10777
10602 10600 10597 10594 10590 10587 10583 10580 10576 10573 10570 10566 10563 10561 10559 10558 10557 10556 10555 10554 10555 10555 10557 10559 10561 10564 10568 10570 10571 10577 10580 10578 10579 10585 10593 10598 10602 10607 10609 10612 10614 10617 10622 10628 10632 10635 10639 10643 10647 10650 10654 10658 10663 10668 10670 10672 10678 10685 10690 10693 10698 10701 10704 10706 10707 10709 10711 10714 10715 10713 10717 10723 10726 10730 10735 10740 10746 10749 10754 10757 10759 10761 10763 10766 10768 10769 10771 10773
10595 10592 10589 10585 10581 10577 10573 10568 10563 10559 10555 10550 10547 10544 10543 10542 10540 10539 10537 10537 10537 10537 10540 10542 10546 10550 10554 10557 10559 10566 10568 10562 10568 10578 10583 10587 10591 10597 10601 10604 10607 10610 10616 10621 10625 10628 10632 10637 10641 10644 10648 10653 10657 10661 10663 10666 10673 10681 10685 10688 10692 10696 10698 10699 10701 10704 10706 10709 10710 10710 10716 10720 10720 10725 10732 10737 10740 10744 10749 10752 10754 10756 10758 10761 10762 10764 10766 10769
10588 10585 10581 10577 10572 10567 10561 10555 10549 10544 10539 10535 10531 10527 10525 10523 10522 10520 10518 10518 10518 10518 10521 10523 10528 10533 10539 10544 10546 10555 10552 10546 10560 10569 10572 10576 10580 10587 10593 10597 10600 10603 10609 10615 10619 10622 10626 10630 10633 10637 10642 10646 10650 10654 10658 10663 10671 10677 10680 10681 10686 10690 10691 10693 10696 10699 10701 10704 10706 10709 10714 10715 10715 10722 10730 10733 10734 10738 10742 10745 10749 10750 10753 10756 10757 10759 10761 10764
10581 10577 10573 10568 10562 10555 10548 10541 10534 10528 10523 10518 10514 10510 10507 10504 10503 10501 10499 10499 10497 10499 10501 10504 10509 10514 10523 10528 10533 10544 10535 10532 10550 10556 10560 10566 10568 10577 10583 10588 10592 10595 10601 10607 10611 10615 10618 10622 10626 10631 10636 10641 10646 10650 10654 10660 10666 10671 10673 10675 10680 10684 10686 10689 10693 10695 10697 10700 10702 10706 10710 10710 10712 10721 10730 10729 10727 10731 10735 10739 10743 10745 10748 10751 10752 10754 10756 10760
10574 10569 10564 10558 10550 10541 10533 10525 10518 10511 10505 10499 10494 10491 10487 10484 10482 10481 10480 10478 10477 10478 10479 10484 10489 10494 10504 10510 10521 10531 10515 10517 10537 10541 10548 10556 10557 10566 10572 10577 10582 10586 10592 10597 10603 10607 10611 10615 10619 10626 10631 10636 10641 10645 10649 10655 10660 10664 10668 10671 10675 10680 10683 10687 10690 10691 10694 10696 10699 10702 10705 10707 10711 10722 10726 10719 10717 10723 10729 10733 10736 10739 10742 10745 10747 10750 10752 10755
10566 10561 10554 10545 10535 10526 10517 10508 10500 10493 10485 10479 10474 10470 10466 10464 10461 10460 10459 10457 10456 10456 10458 10462 10466 10474 10483 10493 10509 10510 10492 10502 10522 10526 10535 10544 10548 10554 10560 10567 10572 10576 10582 10588 10594 10599 10603 10608 10614 10621 10626 10632 10636 10639 10644 10650 10655 10660 10664 10667 10671 10676 10679 10683 10685 10686 10689 10693 10695 10697 10702 10707 10712 10719 10716 10708 10710 10717 10723 10728 10730 10733 10736 10739 10741 10745 10748 10750
10558 10550 10541 10530 10519 10509 10499 10490 10481 10474 10467 10461 10456 10452 10448 10445 10442 10439 10437 10435 10435 10435 10437 10440 10445 10453 10462 10479 10493 10482 10472 10489 10506 10511 10522 10531 10536 10542 10547 10555 10561 10566 10572 10578 10584 10590 10595 10601 10608 10615 10621 10626 10630 10634 10640 10645 10650 10655 10659 10663 10666 10671 10676 10679 10680 10682 10685 10689 10690 10693 10702 10707 10709 10710 10705 10702 10707 10712 10719 10722 10724 10727 10730 10732 10735 10739 10742 10744
10547 10538 10526 10514 10503 10492 10482 10472 10464 10457 10450 10444 10440 10435 10432 10427 10423 10420 10416 10415 10414 10415 10418 10421 10428 10434 10443 10464 10468 10455 10458 10475 10487 10496 10507 10516 10523 10529 10536 10544 10550 10557 10562 10567 10574 10581 10587 10594 10601 10608 10614 10621 10624 10629 10635 10639 10645 10649 10653 10658 10663 10668 10673 10675 10675 10678 10681 10684 10685 10691 10702 10704 10701 10702 10699 10698 10703 10708 10714 10716 10718 10722 10723 10725 10728 10732 10735 10738
10535 10524 10511 10498 10487 10477 10466 10456 10449 10442 10435 10429 10424 10419 10415 10411 10406 10401 10398 10397 10396 10399 10402 10405 10411 10417 10429 10444 10441 10436 10447 10457 10467 10479 10489 10500 10509 10516 10525 10533 10541 10547 10552 10558 10565 10573 10580 10588 10595 10601 10607 10614 10618 10623 10629 10635 10640 10645 10650 10657 10662 10665 10669 10670 10671 10675 10677 10679 10682 10690 10701 10699 10695 10695 10693 10695 10700 10704 10708 10710 10712 10715 10717 10718 10720 10724 10729 10733
10521 10509 10496 10484 10473 10463 10452 10442 10435 10428 10421 10415 10409 10404 10399 10395 10390 10386 10383 10381 10382 10385 10387 10389 10395 10401 10414 10422 10418 10422 10430 10433 10445 10459 10471 10485 10495 10505 10514 10521 10530 10536 10541 10547 10555 10565 10573 10581 10587 10592 10600 10606 10612 10619 10623 10629 10635 10640 10647 10654 10657 10660 10664 10665 10667 10671 10672 10674 10680 10689 10696 10693 10687 10686 10687 10692 10695 10699 10703 10705 10706 10709 10711 10712 10714 10719 10724 10730
10507 10495 10482 10471 10460 10450 10439 10430 10423 10416 10409 10402 10396 10390 10384 10381 10376 10372 10369 10368 10370 10371 10371 10374 10379 10387 10396 10399 10399 10403 10406 10410 10425 10441 10455 10468 10480 10494 10503 10509 10518 10524 10529 10536 10546 10557 10565 10572 10579 10585 10593 10600 10607 10612 10617 10625 10633 10639 10644 10649 10653 10656 10659 10661 10663 10666 10667 10670 10676 10683 10689 10686 10679 10678 10684 10689 10691 10695 10699 10700 10701 10703 10705 10706 10710 10716 10721 10728
10495 10482 10470 10458 10448 10438 10427 10419 10412 10404 10397 10391 10384 10378 10372 10368 10363 10360 10356 10355 10358 10356 10356 10360 10365 10371 10374 10375 10379 10380 10383 10394 10410 10425 10439 10453 10467 10482 10491 10497 10506 10512 10517 10525 10538 10548 10555 10563 10570 10577 10586 10594 10603 10609 10616 10626 10631 10634 10638 10642 10646 10648 10652 10656 10657 10657 10659 10664 10669 10676 10683 10681 10673 10674 10681 10686 10688 10691 10694 10696 10697 10699 10701 10703 10708 10714 10719 10725
10484 10471 10458 10447 10437 10427 10417 10408 10401 10394 10387 10380 10373 10368 10363 10358 10353 10349 10344 10343 10346 10343 10342 10347 10351 10354 10354 10355 10360 10362 10368 10383 10397 10410 10424 10439 10454 10468 10479 10486 10494 10500 10506 10516 10529 10538 10546 10554 10562 10572 10584 10594 10602 10608 10613 10619 10622 10624 10628 10632 10637 10639 10644 10648 10648 10648 10651 10658 10665 10672 10677 10675 10669 10670 10678 10683 10686 10688 10691 10693 10694 10696 10697 10700 10705 10711 10715 10719
10473 10460 10447 10436 10426 10417 10407 10398 10391 10384 10377 10370 10364 10358 10354 10349 10343 10339 10334 10333 10336 10332 10329 10335 10337 10338 10340 10342 10347 10352 10360 10373 10385 10396 10409 10426 10441 10454 10466 10474 10482 10488 10496 10508 10519 10527 10535 10544 10557 10572 10582 10589 10594 10598 10602 10607 10611 10615 10620 10624 10630 10634 10637 10641 10642 10643 10647 10656 10663 10668 10671 10671 10667 10667 10673 10680 10684 10686 10689 10690 10692 10692 10693 10696 10701 10706 10710 10714
10462 10450 10437 10425 10416 10407 10398 10389 10382 10374 10368 10361 10355 10349 10344 10339 10334 10331 10325 10322 10326 10324 10319 10323 10326 10327 10329 10332 10339 10348 10356 10364 10373 10381 10395 10412 10425 10438 10452 10461 10470 10478 10488 10497 10505 10514 10523 10539 10557 10567 10571 10575 10580 10586 10591 10597 10603 10608 10613 10618 10623 10629 10632 10634 10636 10639 10645 10652 10658 10662 10666 10668 10665 10663 10669 10678 10683 10684 10685 10687 10688 10689 10690 10693 10697 10702 10706 10708
10453 10440 10427 10416 10406 10398 10389 10381 10373 10366 10359 10352 10346 10341 10336 10331 10326 10323 10319 10314 10315 10314 10311 10313 10316 10317 10320 10324 10331 10339 10345 10352 10359 10365 10378 10396 10409 10422 10435 10446 10458 10467 10474 10482 10492 10505 10521 10540 10552 10555 10558 10565 10571 10577 10582 10589 10596 10600 10607 10612 10618 10623 10626 10628 10631 10635 10642 10648 10652 10656 10661 10663 10661 10659 10665 10676 10680 10680 10681 10683 10685 10686 10688 10690 10693 10698 10701 10704
10444 10432 10419 10407 10398 10390 10381 10373 10365 10358 10351 10344 10338 10333 10328 10323 10318 10315 10313 10309 10306 10304 10304 10305 10307 10308 10311 10316 10322 10327 10331 10339 10346 10350 10365 10384 10394 10405 10418 10432 10444 10452 10460 10473 10488 10503 10520 10534 10539 10542 10549 10556 10562 10570 10575 10582 10590 10595 10602 10608 10614 10618 10621 10625 10626 10630 10636 10642 10646 10650 10655 10658 10658 10657 10663 10672 10676 10676 10678 10679 10682 10684 10686 10688 10689 10693 10697 10700
10437 10425 10413 10401 10390 10382 10374 10366 10358 10351 10344 10337 10330 10325 10321 10316 10312 10308 10306 10304 10299 10297 10296 10298 10300 10301 10304 10308 10313 10318 10323 10328 10332 10340 10360 10376 10380 10388 10403 10417 10428 10439 10453 10468 10482 10496 10509 10519 10524 10531 10541 10547 10554 10561 10568 10576 10585 10591 10597 10604 10609 10612 10616 10618 10618 10623 10630 10636 10641 10645 10651 10655 10655 10655 10659 10667 10671 10672 10674 10676 10679 10681 10683 10684 10686 10690 10693 10694
10431 10419 10407 10395 10384 10375 10368 10360 10353 10345 10338 10331 10324 10319 10315 10310 10306 10303 10300 10298 10294 10291 10291 10292 10293 10295 10297 10302 10306 10311 10314 10316 10320 10333 10353 10363 10365 10375 10390 10403 10417 10432 10447 10459 10470 10484 10497 10506 10512 10521 10530 10537 10546 10554 10561 10570 10578 10585 10591 10598 10602 10604 10608 10610 10612 10618 10626 10633 10637 10641 10647 10651 10652 10651 10654 10662 10667 10668 10670 10672 10675 10677 10679 10682 10684 10686 10688 10688
10425 10414 10402 10391 10380 10370 10362 10355 10348 10340 10333 10326 10319 10313 10310 10305 10301 10298 10295 10293 10290 10287 10287 10287 10288 10290 10292 10296 10300 10304 10306 10308 10315 10329 10345 10350 10354 10366 10380 10393 10409 10425 10437 10447 10459 10473 10487 10497 10505 10513 10522 10529 10537 10546 10554 10562 10570 10578 10584 10589 10593 10597 10601 10603 10607 10614 10621 10628 10631 10636 10643 10646 10647 10648 10651 10658 10663 10665 10667 10669 10671 10673 10677 10679 10681 10682 10683 10684
10421 10409 10397 10387 10377 10367 10358 10351 10343 10336 10329 10322 10315 10309 10304 10300 10296 10294 10291 10289 10286 10284 10283 10283 10284 10285 10288 10291 10295 10297 10299 10304 10314 10327 10336 10339 10346 10359 10372 10386 10401 10415 10425 10436 10450 10466 10480 10490 10498 10506 10515 10523 10532 10541 10549 10555 10564 10572 10576 10579 10584 10590 10593 10596 10601 10609 10616 10621 10625 10632 10640 10642 10644 10646 10649 10655 10660 10662 10665 10667 10668 10671 10674 10675 10676 10678 10680 10681
10417 10405 10393 10382 10373 10365 10356 10348 10340 10333 10326 10319 10312 10306 10301 10297 10293 10291 10288 10285 10283 10282 10281 10280 10280 10282 10284 10288 10291 10292 10296 10303 10312 10322 10328 10332 10341 10352 10364 10377 10390 10403 10414 10428 10447 10463 10473 10482 10491 10499 10508 10519 10528 10536 10541 10547 10556 10564 10566 10570 10576 10582 10585 10589 10596 10603 10610 10616 10622 10630 10636 10639 10643 10644 10647 10652 10657 10660 10662 10663 10664 10666 10668 10669 10671 10674 10676 10678
10413 10401 10390 10379 10370 10362 10354 10346 10338 10331 10324 10317 10310 10304 10300 10295 10291 10287 10285 10282 10280 10279 10278 10278 10278 10279 10281 10284 10286 10289 10293 10300 10308 10315 10318 10323 10335 10346 10357 10369 10380 10391 10404 10421 10439 10451 10462 10474 10484 10491 10500 10512 10521 10527 10532 10539 10548 10553 10555 10561 10568 10574 10579 10584 10591 10599 10606 10613 10621 10627 10632 10637 10639 10640 10645 10650 10654 10656 10657 10658 10660 10661 10663 10664 10667 10670 10672 10673
10410 10399 10388 10377 10367 10359 10351 10344 10336 10329 10322 10315 10309 10303 10298 10294 10290 10285 10282 10280 10278 10277 10276 10275 10275 10276 10278 10280 10283 10286 10290 10295 10302 10306 10309 10315 10327 10337 10348 10359 10370 10383 10397 10413 10427 10439 10452 10465 10474 10481 10492 10503 10509 10515 10523 10531 10538 10542 10546 10554 10561 10568 10574 10580 10587 10595 10603 10614 10620 10624 10629 10634 10635 10638 10643 10647 10649 10651 10652 10654 10656 10657 10659 10661 10662 10665 10666 10667
10408 10397 10386 10375 10365 10357 10349 10341 10334 10327 10320 10314 10308 10302 10297 10293 10289 10285 10281 10278 10276 10275 10274 10273 10272 10273 10275 10277 10279 10282 10286 10290 10296 10300 10304 10312 10321 10330 10340 10352 10364 10377 10390 10405 10420 10434 10446 10457 10466 10475 10485 10494 10501 10508 10515 10522 10530 10536 10541 10548 10555 10562 10569 10575 10584 10593 10604 10614 10617 10619 10625 10630 10634 10636 10639 10643 10644 10646 10649 10651 10651 10652 10654 10656 10658 10660 10661 10662
10407 10395 10384 10373 10364 10355 10347 10339 10332 10325 10318 10312 10306 10301 10297 10293 10288 10284 10280 10277 10275 10274 10272 10271 10270 10271 10273 10274 10276 10279 10282 10286 10291 10295 10302 10310 10318 10327 10336 10347 10359 10372 10385 10402 10417 10428 10439 10451 10461 10469 10477 10487 10495 10501 10508 10516 10525 10531 10537 10545 10553 10560 10567 10575 10585 10595 10606 10612 10611 10615 10621 10628 10632 10632 10633 10638 10639 10641 10645 10645 10646 10649 10650 10652 10654 10656 10657 10657
10405 10394 10383 10372 10363 10354 10346 10337 10330 10323 10317 10311 10306 10301 10297 10292 10288 10283 10279 10276 10274 10272 10271 10270 10269 10269 10271 10272 10274 10276 10278 10282 10287 10292 10298 10306 10314 10322 10330 10340 10351 10364 10380 10396 10409 10420 10431 10443 10454 10462 10471 10482 10490 10498 10508 10518 10527 10532 10537 10546 10553 10560 10569 10579 10588 10595 10603 10607 10607 10611 10618 10626 10629 10627 10628 10634 10634 10636 10639 10641 10644 10646 10647 10648 10650 10652 10652 10653
10402 10392 10382 10372 10362 10353 10345 10336 10329 10322 10316 10310 10305 10301 10297 10292 10287 10283 10279 10275 10273 10271 10270 10269 10268 10268 10269 10270 10272 10273 10276 10279 10284 10289 10295 10302 10310 10319 10328 10337 10347 10360 10373 10385 10399 10413 10427 10440 10452 10461 10470 10480 10489 10498 10507 10514 10521 10526 10532 10540 10548 10557 10568 10576 10583 10590 10597 10601 10602 10606 10615 10624 10625 10622 10624 10628 10629 10632 10635 10638 10641 10643 10643 10645 10647 10648 10648 10648
10400 10391 10381 10371 10361 10352 10344 10336 10329 10322 10316 10309 10304 10300 10297 10292 10287 10282 10278 10275 10272 10270 10269 10268 10267 10267 10267 10269 10270 10271 10274 10277 10282 10287 10292 10299 10308 10317 10326 10335 10345 10357 10368 10380 10393 10407 10420 10434 10447 10455 10464 10474 10483 10491 10498 10503 10510 10515 10521 10531 10544 10554 10562 10568 10575 10583 10590 10594 10596 10602 10612 10619 10620 10617 10617 10622 10626 10629 10631 10634 10637 10638 10640 10642 10643 10644 10643 10642
10398 10390 10379 10369 10360 10352 10344 10336 10329 10322 10316 10310 10304 10299 10295 10291 10287 10282 10278 10274 10272 10270 10268 10267 10266 10265 10266 10267 10268 10270 10272 10276 10280 10285 10290 10297 10306 10314 10322 10331 10342 10353 10364 10377 10389 10402 10414 10426 10436 10444 10454 10466 10474 10481 10489 10497 10506 10511 10519 10532 10543 10549 10556 10563 10570 10577 10583 10588 10592 10598 10607 10612 10614 10611 10612 10618 10623 10626 10628 10630 10633 10635 10636 10638 10639 10639 10638 10638
10395 10387 10378 10370 10360 10351 10344 10336 10328 10321 10315 10309 10304 10300 10295 10290 10285 10281 10278 10275 10272 10270 10268 10266 10265 10265 10265 10266 10267 10270 10272 10275 10278 10283 10289 10296 10304 10312 10320 10329 10339 10349 10360 10372 10384 10396 10408 10418 10427 10436 10446 10456 10464 10472 10481 10490 10499 10508 10519 10531 10536 10542 10551 10559 10566 10573 10580 10586 10590 10595 10602 10607 10610 10608 10608 10614 10620 10622 10624 10626 10628 10631 10632 10634 10634 10634 10634 10635
10393 10385 10378 10371 10361 10351 10343 10335 10328 10321 10315 10308 10303 10299 10295 10290 10286 10281 10278 10275 10272 10270 10268 10266 10265 10265 10266 10266 10268 10270 10272 10275 10278 10283 10288 10295 10303 10310 10318 10328 10338 10347 10356 10366 10377 10388 10398 10408 10418 10428 10437 10446 10454 10463 10475 10486 10495 10503 10513 10521 10528 10539 10549 10556 10562 10569 10577 10583 10586 10591 10598 10604 10608 10606 10604 10609 10616 10618 10620 10622 10624 10626 10627 10628 10629 10629 10631 10632
10393 10384 10377 10370 10361 10351 10342 10334 10327 10320 10315 10310 10304 10298 10294 10290 10286 10282 10278 10275 10272 10270 10268 10266 10266 10265 10266 10267 10268 10270 10272 10275 10279 10283 10288 10294 10301 10308 10316 10326 10336 10345 10354 10363 10372 10382 10392 10402 10412 10420 10428 10439 10449 10462 10476 10486 10493 10500 10507 10514 10523 10535 10544 10550 10558 10565 10572 10578 10581 10586 10594 10600 10605 10603 10599 10604 10611 10614 10616 10618 10619 10621 10622 10623 10624 10626 10628 10629
10393 10383 10373 10365 10359 10351 10341 10333 10326 10320 10315 10311 10305 10299 10295 10291 10286 10283 10279 10276 10273 10270 10268 10267 10266 10266 10266 10267 10268 10270 10273 10276 10279 10284 10289 10294 10300 10307 10315 10324 10333 10342 10350 10359 10368 10377 10387 10397 10406 10414 10424 10438 10453 10468 10477 10483 10489 10498 10506 10515 10523 10533 10539 10545 10553 10560 10567 10573 10577 10582 10590 10597 10601 10597 10594 10600 10607 10611 10612 10614 10615 10616 10618 10619 10621 10624 10625 10627
10392 10383 10372 10363 10356 10350 10342 10334 10327 10320 10315 10310 10305 10300 10296 10292 10288 10284 10280 10277 10274 10272 10270 10268 10267 10267 10267 10268 10269 10271 10273 10276 10280 10284 10289 10294 10300 10306 10314 10322 10331 10340 10348 10357 10365 10373 10383 10393 10404 10415 10429 10444 10456 10463 10467 10473 10482 10491 10501 10511 10521 10530 10537 10543 10551 10558 10564 10569 10573 10579 10587 10593 10595 10592 10591 10597 10603 10606 10608 10609 10610 10612 10614 10617 10619 10621 10622 10624
10391 10382 10373 10364 10355 10349 10343 10336 10330 10323 10317 10311 10306 10301 10297 10293 10289 10285 10282 10278 10276 10273 10272 10271 10269 10268 10268 10269 10271 10272 10274 10277 10281 10285 10290 10295 10300 10306 10313 10321 10329 10337 10345 10353 10361 10370 10381 10392 10404 10416 10429 10438 10444 10448 10455 10464 10473 10481 10491 10501 10512 10524 10533 10541 10549 10554 10560 10565 10570 10576 10582 10587 10590 10587 10587 10593 10598 10601 10603 10604 10606 10608 10611 10614 10615 10617 10619 10621
10389 10381 10374 10366 10356 10348 10342 10337 10331 10325 10318 10312 10307 10302 10297 10294 10291 10287 10283 10280 10277 10275 10273 10273 10272 10271 10270 10271 10272 10274 10275 10278 10281 10285 10291 10296 10301 10307 10314 10321 10327 10334 10342 10350 10359 10370 10380 10390 10401 10410 10417 10423 10429 10436 10446 10456 10465 10477 10488 10498 10509 10519 10527 10533 10540 10546 10554 10561 10566 10572 10577 10583 10584 10582 10583 10589 10593 10596 10598 10599 10601 10604 10608 10610 10611 10613 10615 10617
10389 10382 10374 10367 10358 10349 10342 10336 10330 10324 10318 10313 10308 10304 10299 10295 10292 10288 10284 10281 10279 10278 10276 10274 10274 10274 10272 10273 10274 10276 10278 10280 10283 10286 10290 10295 10300 10307 10313 10319 10324 10331 10340 10349 10358 10367 10375 10384 10393 10400 10406 10411 10418 10428 10441 10456 10470 10481 10491 10500 10509 10514 10519 10526 10532 10541 10550 10556 10562 10567 10572 10578 10579 10577 10579 10584 10588 10591 10593 10595 10597 10601 10603 10605 10607 10610 10612 10614
10386 10380 10374 10367 10360 10351 10342 10335 10329 10324 10319 10314 10310 10305 10301 10296 10293 10289 10286 10283 10281 10280 10278 10277 10277 10277 10276 10275 10276 10278 10280 10283 10285 10288 10291 10296 10300 10305 10309 10315 10321 10329 10337 10345 10353 10361 10369 10378 10386 10394 10404 10416 10429 10444 10459 10471 10479 10485 10491 10498 10505 10511 10518 10524 10531 10539 10546 10552 10557 10562 10567 10572 10574 10573 10576 10580 10584 10587 10589 10590 10593 10596 10599 10601 10604 10607 10609 10610
10385 10378 10371 10365 10359 10353 10345 10337 10330 10324 10319 10314 10310 10306 10302 10298 10294 10291 10288 10285 10283 10281 10280 10279 10279 10279 10279 10279 10279 10280 10282 10285 10287 10290 10293 10297 10300 10303 10307 10313 10321 10330 10338 10345 10353 10362 10371 10380 10387 10397 10411 10425 10440 10454 10464 10470 10475 10481 10488 10496 10502 10509 10516 10522 10529 10537 10543 10548 10553 10557 10561 10566 10568 10569 10572 10576 10579 10582 10584 10587 10589 10592 10594 10597 10600 10603 10605 10607
10388 10379 10372 10365 10358 10352 10345 10338 10331 10325 10319 10315 10311 10306 10302 10299 10295 10292 10289 10287 10285 10284 10282 10281 10281 10281 10282 10282 10282 10282 10284 10286 10288 10291 10294 10297 10301 10305 10310 10317 10325 10333 10341 10348 10355 10364 10373 10382 10391 10402 10413 10422 10431 10440 10448 10457 10465 10473 10482 10491 10499 10506 10512 10520 10528 10534 10539 10545 10549 10552 10556 10560 10563 10565 10568 10572 10575 10578 10580 10583 10586 10588 10590 10593 10596 10599 10601 10603
10388 10381 10374 10367 10359 10351 10343 10337 10331 10325 10320 10316 10312 10308 10304 10300 10297 10294 10291 10288 10287 10286 10285 10283 10283 10283 10283 10284 10284 10284 10285 10287 10289 10292 10295 10299 10303 10309 10315 10320 10326 10332 10340 10349 10357 10365 10373 10382 10392 10403 10412 10421 10429 10435 10440 10448 10457 10466 10475 10484 10493 10502 10510 10518 10524 10529 10535 10540 10544 10547 10551 10556 10560 10563 10565 10568 10572 10575 10577 10580 10582 10584 10586 10589 10593 10595 10597 10600
10385 10378 10372 10366 10359 10352 10345 10339 10332 10327 10321 10317 10312 10309 10305 10301 10298 10295 10292 10290 10288 10287 10287 10286 10285 10284 10284 10285 10286 10286 10287 10289 10291 10294 10297 10301 10305 10311 10317 10322 10327 10333 10340 10348 10356 10365 10374 10382 10392 10402 10411 10419 10428 10435 10440 10446 10453 10462 10471 10479 10488 10497 10505 10511 10517 10523 10529 10535 10540 10544 10548 10552 10557 10560 10562 10564 10568 10571 10574 10576 10578 10580 10582 10585 10588 10591 10593 10596
10383 10375 10369 10363 10358 10353 10346 10340 10334 10328 10323 10318 10314 10310 10306 10302 10299 10296 10294 10291 10290 10289 10288 10288 10287 10286 10286 10286 10287 10288 10289 10290 10293 10296 10299 10303 10306 10311 10317 10323 10329 10335 10341 10347 10356 10365 10374 10382 10391 10400 10408 10416 10423 10431 10439 10446 10453 10460 10467 10475 10484 10491 10498 10504 10511 10518 10525 10531 10537 10541 10544 10548 10552 10555 10558 10561 10564 10567 10570 10572 10574 10576 10578 10581 10584 10586 10589 10592
10384 10376 10369 10363 10358 10353 10347 10339 10334 10329 10323 10319 10315 10311 10307 10304 10301 10298 10295 10293 10292 10290 10289 10289 10288 10288 10288 10288 10289 10290 10291 10292 10294 10297 10301 10304 10307 10311 10317 10323 10330 10336 10342 10348 10357 10366 10373 10381 10390 10397 10405 10413 10420 10428 10436 10443 10449 10457 10465 10474 10482 10489 10496 10502 10508 10515 10521 10527 10533 10537 10539 10543 10547 10551 10555 10558 10560 10562 10565 10567 10570 10572 10574 10577 10580 10582 10585 10588
10384 10378 10371 10364 10358 10352 10346 10340 10334 10329 10324 10319 10315 10312 10308 10305 10302 10300 10297 10295 10293 10292 10291 10290 10290 10289 10290 10290 10291 10292 10293 10294 10296 10299 10302 10306 10309 10313 10318 10324 10330 10336 10342 10350 10358 10365 10372 10380 10389 10396 10403 10411 10419 10426 10433 10439 10447 10456 10465 10473 10480 10487 10493 10499 10505 10510 10515 10522 10528 10532 10534 10538 10543 10548 10552 10554 10556 10558 10560 10562 10565 10568 10571 10574 10577 10579 10581 10585